DELTA 1 DEB, 18671

Orbit data source: Space-Track

DELTA 1 DEB, 18671 is space debris in SSO originally from a launch on Tue, 06 Nov 1973 UTC launched from the Air Force Western Test Range (AFWTR). Debris objects in space refer to the collection of defunct objects orbiting the Earth. Examples of debris include non-operational satellites, rocket bodies, and fragments generated from explosions, collisions, or faulty payload assembly.

Loading next visibility...
Identifier
18671, 1973-086GZ
Orbit
SSO
Country
Flag of USUS
Related business
Manufacturer
Unknown
Mission
Spacecraft
Bus & Motor
Unknown
Mass
Unknown
Launch date (UTC)
1973-11-06 (53 years ago)
Launch vehicle
Unknown
Launch site
Air Force Western Test Range (AFWTR)
Object type
Payload
Rocket body
Debris
Shape & HBR
Unknown shape, 1.1 m
Radar Cross Section
Medium (>0.1 m² and <1 m²)

Expand to show TLE details & history
Last TLE update: 2 days ago

TLE from 2 days ago
0 DELTA 1 DEB
1 18671U 73086GZ  26261.34859866  .00000090  00000-0  98039-3 0  9994
2 18671 101.8587 214.4720 0109003 200.4753 314.6223 12.39900285647972
Epoch: 2026-09-18T08:21Z
TLE epoch observation values (Epoch: 2026-09-18T08:21:58.924Z)
Latitude
25.24024°
Longitude
-82.64338°
Altitude
1,449.865 km
Speed
7.166 km/s
True Right ascension
02h 40m 29s
True Declination
25° 07' 10"
Sunlit
Object was in full shadow at epoch
Visualization orbit readout
Latitude
Unknown
Longitude
Unknown
Altitude
Unknown
Speed
Unknown
Apparent Right ascension
Unknown
Apparent Declination
Unknown
Sunlit
N/A
Visualization observer readout
Local Sidereal Time
09:47:31
Azimuth
Unknown
Elevation
Unknown
Doppler factor
Unknown
Orbital elements
Apogee altitude
1,590.516 km
Perigee altitude
1,418.668 km
Semi-major axis
7,882.729 km
Eccentricity
0.0109
Inclination
101.8587°
RAAN
214.472°
Arg. of periapsis
200.4753°
True anomaly
313.72471°
Mean anomaly
314.6223°
Eccentric anomaly
314.17437°
Mean motion
3.10119 °/min
Orbital period
116.08 mins
BSTAR
0.00098039
Loading maneuver chart data...
Computing Atmospheric mass density...
Loading historical data...
Loading historical data...
Loading historical data...
Loading historical data...
Loading historical data...
Loading historical data...
Loading historical data...

Documentation

Showing up to 5 results
|